Lid_Strength_Index
6 7 7 6 7 6 6 6 6 6 6 6 6 5 4 3 1 2 3 0 3 7 7 6 6 10 11 12 14 13 11 15 18 19 20 22 18 17 19 17 18 20 19 19 18 18 20 14 15 17 16 14 15 16
7 7 7 7 6 6 6 6 6 6 6 6 6 5 5 4 2 0 3 1 1 5 6 5 5 4 5 7 7 8 12 16 12 19 19 14 17 17 23 24 13 18 16 19 17 17 14 13 14 13 13 14 15 16
7 7 7 7 7 6 6 6 6 6 6 6 6 5 5 4 2 0 2 3 3 5 7 6 8 4 3 4 3 9 12 7 12 8 14 16 16 15 16 21 19 12 11 15 18 14 14 14 15 15 14 15 16 16
7 7 7 7 7 7 6 6 6 6 6 6 6 5 5 4 3 0 6 4 4 7 14 11 5 6 3 3 4 4 5 5 7 8 11 14 15 8 12 12 12 13 12 16 15 14 14 16 17 17 16 16 17 17
7 7 7 7 7 7 7 7 6 6 7 6 6 5 5 4 3 6 7 3 3 6 12 13 7 6 6 6 5 4 4 9 8 9 12 13 12 10 9 12 14 14 17 15 16 16 15 15 16 17 18 19 19 20
7 7 7 7 7 7 7 7 7 7 7 7 6 5 5 4 3 10 15 5 3 3 13 17 10 10 8 7 5 5 6 7 6 11 13 12 7 8 13 18 15 16 17 19 19 19 17 16 17 19 19 19 19 21
7 7 7 7 7 7 7 7 7 7 7 6 6 6 5 4 8 14 14 7 4 3 13 17 17 13 10 10 13 14 10 10 8 11 12 13 11 10 13 14 18 19 19 19 19 19 17 17 18 20 19 20 21 22
7 7 7 7 7 7 7 7 7 7 7 7 6 7 6 6 7 11 10 6 7 14 17 23 19 16 13 17 15 15 15 15 13 16 20 18 17 20 20 20 19 19 19 18 19 20 21 19 19 19 20 21 23 23
7 7 8 7 7 8 8 8 8 7 7 7 8 8 11 16 19 17 6 8 12 16 24 29 27 23 16 20 18 15 16 18 20 19 19 18 25 19 23 21 21 22 22 21 21 21 21 22 21 21 23 24 25 24
7 8 7 7 8 8 8 8 8 8 8 9 15 21 24 21 9 11 19 21 22 27 27 29 30 27 17 20 22 19 18 21 22 20 18 20 23 25 21 23 23 22 21 22 26 24 27 26 23 23 24 23 24 24
7 7 7 7 8 8 9 9 8 9 11 20 23 27 19 13 20 27 28 27 30 29 34 35 31 30 21 26 28 20 24 23 24 21 22 27 24 26 25 24 22 21 22 24 24 22 24 25 25 25 25 25 25 26
7 7 7 7 8 9 9 9 9 13 14 16 14 19 24 27 29 27 36 34 33 29 35 32 31 28 29 24 29 27 26 24 25 28 24 26 23 25 27 26 26 25 26 27 29 27 27 27 27 28 28 29 29 28
8 7 7 7 8 10 9 9 9 10 16 23 26 29 29 31 29 31 34 32 32 38 38 37 32 33 31 29 35 31 29 26 29 29 26 25 28 28 28 29 28 28 30 32 30 29 29 29 29 31 30 30 30 31
8 8 7 7 9 10 9 9 11 16 26 28 30 30 29 33 32 32 32 31 32 34 36 34 40 35 39 33 37 32 30 32 31 31 27 30 28 28 30 34 36 27 29 29 28 27 27 27 28 28 29 29 30 31
7 8 7 9 10 10 10 12 16 25 28 26 29 28 32 33 41 44 46 39 37 33 32 37 38 32 40 37 38 35 32 33 29 27 29 27 27 30 29 28 28 27 27 27 27 27 28 27 27 27 27 28 29 30
7 8 11 10 11 11 13 18 26 31 33 30 33 32 39 34 36 42 44 41 39 33 36 37 41 39 38 39 35 33 35 31 28 34 30 33 32 30 29 27 28 28 28 29 29 29 29 28 29 29 29 29 30 31
7 13 10 11 12 15 17 28 29 34 29 33 30 42 34 34 31 33 36 36 34 36 37 42 36 32 37 40 39 36 32 30 31 32 35 34 30 30 31 32 31 32 31 30 29 29 29 30 31 31 32 31 31 31
10 14 11 12 17 21 33 33 33 33 29 34 32 34 37 36 37 38 38 37 35 41 40 36 38 40 36 36 33 30 32 34 37 33 30 29 33 33 34 32 30 29 29 29 29 29 30 32 32 31 31 31 31 30
12 14 12 13 19 27 31 35 33 29 32 38 37 37 37 37 40 38 38 39 41 43 39 44 43 38 33 33 31 34 37 36 32 32 31 31 31 33 31 33 32 30 30 30 30 29 30 30 30 30 30 30 31 30
10 12 14 15 19 26 31 34 36 33 32 36 36 36 35 36 39 40 41 42 40 41 42 41 36 33 31 31 30 30 31 32 35 34 29 31 34 36 35 31 29 30 30 30 30 29 30 30 29 29 29 30 31 31
16 16 19 24 30 32 36 36 35 34 36 34 37 35 38 38 37 37 38 44 40 37 36 33 35 35 38 39 38 38 35 34 32 30 31 33 32 33 33 31 32 32 32 31 31 31 30 30 29 29 30 30 30 29
21 18 26 26 31 37 37 40 34 35 34 36 37 35 37 37 37 38 41 39 39 34 34 34 36 36 38 35 31 36 34 36 38 37 34 33 35 34 33 34 31 32 32 31 31 31 30 29 29 29 30 29 28 29
19 23 28 30 32 38 37 39 35 35 33 34 38 35 36 37 40 41 39 37 35 34 34 35 36 41 39 42 42 41 40 37 37 38 38 35 33 35 35 35 35 33 32 32 32 29 30 29 30 29 28 29 29 30
21 24 27 30 37 34 40 38 35 34 34 34 33 32 36 37 42 40 37 32 31 40 39 36 36 37 40 42 38 35 36 37 40 42 42 38 37 36 38 35 36 35 32 30 29 30 30 30 29 28 28 30 30 30
22 26 29 31 35 33 33 33 34 34 32 31 32 33 37 39 35 35 34 28 30 33 32 36 35 31 31 37 40 38 43 37 36 37 39 37 39 40 37 36 35 33 35 35 33 32 32 30 29 28 28 29 29 29
22 28 29 28 30 30 27 28 31 30 28 31 33 38 37 33 32 30 27 26 27 27 31 31 30 34 35 34 36 38 35 38 40 39 38 38 36 36 39 39 38 34 35 33 32 33 33 32 30 29 28 28 28 29
24 28 33 35 33 30 29 30 31 29 27 28 32 36 33 30 27 24 23 26 26 26 27 28 26 26 26 31 34 39 43 36 34 36 41 40 39 37 36 36 37 34 35 33 33 33 33 33 30 28 28 28 28 28
30 30 28 29 29 28 28 26 26 26 25 27 29 31 28 26 22 23 24 26 28 28 29 30 32 31 29 30 30 35 43 47 44 43 43 44 47 45 41 39 40 27 33 34 34 34 32 29 31 31 31 30 28 27
27 30 30 30 28 28 28 26 24 25 27 25 25 23 23 21 24 24 24 28 28 27 27 27 31 34 34 34 34 35 37 36 33 34 35 36 40 35 40 44 43 41 40 40 33 26 24 27 30 32 33 32 30 29
26 29 29 26 25 23 21 25 25 29 29 29 31 30 28 26 25 27 28 28 29 30 28 31 32 31 30 30 29 30 37 37 33 32 31 34 34 39 44 43 43 43 44 45 41 38 29 33 31 34 33 32 32 31
28 28 28 27 25 21 25 28 30 32 32 32 33 33 31 31 30 28 29 29 30 30 30 31 31 32 32 31 31 30 29 34 36 34 40 40 41 43 45 44 43 45 46 44 42 41 38 38 40 39 37 35 34 33
26 26 26 25 23 24 27 27 27 29 30 31 30 33 31 31 29 26 28 29 27 28 28 30 31 30 30 30 31 31 30 34 37 34 34 36 38 39 41 43 44 44 40 37 39 39 39 39 39 40 40 40 39 38
26 26 27 28 27 24 25 27 27 26 27 27 26 28 30 30 27 25 26 28 29 30 30 30 30 30 30 31 31 30 29 31 33 27 28 28 31 32 40 41 43 41 37 35 33 34 36 38 38 40 40 40 40 40